星链-34181 (STARLINK-34181)

导读

STARLINK-34181是美国SpaceX星链星座中的一颗卫星,于2025年5月24日发射升空。星链项目旨在构建全球卫星互联网星座,为全球偏远及网络欠发达地区提供高速互联网接入服务,该卫星加入星座后进一步扩充了星链网络的覆盖能力与服务容量,推动低轨卫星互联网部署进程。

基本信息
目录编号:
64144
目录名称:
STARLINK-34181
国际标识:
2025-111X
轨道中心:
EARTH
卫星名称:
星链-34181
卫星全名:
星链-34181 (STARLINK-34181)
卫星状态:
在轨 (已飞行468 天)
发射日期:
2025-05-24 UTC
国别 :
美国 (US)
星等 :
--
轨道信息
数据来源 国际轨道数据
星历时间: 2026-09-04T09:35:35+0800
7小时前
查看轨道信息
半长轴: 6861.164km
偏心率: 0.0001386
轨道倾角: 43.001°
近地点辐角 269.350°
升交点赤经 150.503°
平近点角 90.719°
近地点: 482.076km
远地点: 483.978km
周期: 94.266分钟
每日圈数: 15.275874
详细信息
固有亮度:
5
最大亮度:
2.5
卫星平台:
Starlink V1.0
覆盖范围:
全球
运营商:
太空探索技术公司
运营商所在国:
美国
制造商(研发单位):
太空探索技术公司
制造商所在国:
美国
使用方式:
暂无
卫星简介
Starlink 计划是 SpaceX 推出的全球卫星互联网项目,通过发射低轨道卫星,为全球尤其是偏远地区提供高速、低延迟的互联网服务。自 2019 年起,Starlink 已部署数千颗卫星,旨在缩小全球数字鸿沟,推动互联网普及。该项目还为军事、航空等行业提供通信支持,带来广泛经济效益。
2D轨道图
3D轨道图
轨道高度分析图
轨道倾角分析图
轨道综合分析图
查看轨道综合分析图
交会数据列表
事件ID 空间交会对象 最接近时刻(TCA) 交会距离 交会风险概率(CRP) 交会风险指数(CRI) 操作
CDM_260905-014605-650406-414421
2026-09-05T
01:46:57+0000
0.679 km
远距离
7.014285E-5 中风险 0.72
CDM_260904-202305-476006-414421
2026-09-04T
20:23:29+0000
0.775 km
远距离
5.244719E-5 中风险 0.69
CDM_260903-230805-655406-414421
2026-09-03T
23:08:15+0000
0.862 km
远距离
3.389796E-5 中风险 0.66
CDM_260903-232705-692706-414422
2026-09-03T
23:27:14+0000
1.082 km
极远距离
1.319803E-5 中风险 0.57
CDM_260905-003905-947506-414421
2026-09-05T
00:39:53+0000
1.127 km
极远距离
7.035422E-6 低风险 0.52
CDM_260904-010105-692706-414422
2026-09-04T
01:01:23+0000
1.316 km
极远距离
6.726203E-6 低风险 0.52
CDM_260904-111305-692706-414422
2026-09-04T
11:13:23+0000
1.396 km
极远距离
5.526095E-6 低风险 0.5
CDM_260905-030105-947506-414421
2026-09-05T
03:01:06+0000
1.228 km
极远距离
5.269686E-6 低风险 0.49
CDM_260905-084406-382606-414421
2026-09-05T
08:44:58+0000
1.516 km
极远距离
4.162562E-6 低风险 0.47
CDM_260904-092005-655406-414421
2026-09-04T
09:20:15+0000
1.697 km
极远距离
3.491752E-6 低风险 0.46